Weather History for North Adams, MA

Change the Weather History Date:

Tuesday, August 26, 2014

  Actual Average Record
Temperature  
Mean Temperature 70 °F -  
Max Temperature 84 °F 75 °F 84 °F (1996)
Min Temperature 55 °F 53 °F 46 °F (2008)
Cooling Degree Days 4    
Growing Degree Days 20 (Base 50)    
Moisture  
Dew Point 59 °F    
Average Humidity 84    
Maximum Humidity 100    
Minimum Humidity 44    
Precipitation  
Precipitation 0.00 in - - ()
Sea Level Pressure  
Sea Level Pressure 30.15 in    
Wind  
Wind Speed 1 mph (SSW)    
Max Wind Speed 9 mph    
Max Gust Speed -    
Visibility 7 miles    
Events Fog    
Averages and records for this station are not official NWS values.
T = Trace of Precipitation, MM = Missing Value Source: NWS Daily Summary

Daily Weather History Graph

Daily Weather History Graph

Search for Another Location

Airport:

Trip Planner

Search our weather history database for the weather conditions in past years. The results will help you decide how hot, cold, wet, or windy it might be!

Date:

Astronomy

Aug. 26, 2014 Rise Set
Actual Time 6:10 AM EDT 7:37 PM EDT
Civil Twilight 5:41 AM EDT 8:06 PM EDT
Nautical Twilight 5:05 AM EDT 8:42 PM EDT
Astronomical Twilight 4:28 AM EDT 9:19 PM EDT
Moon 7:11 AM EDT 7:54 PM EDT
Length of Visible Light 14h 25m
Length of Day
13h 26m
New Moon, 1% of the Moon is Illuminated
Aug 26
New Moon
Sep 2
First Quarter
Sep 8
Full
Sep 15
Last Quarter
Sep 24
New

Hourly Weather History & Observations

Time (EDT) Temp. Heat Index Dew Point Humidity Pressure Visibility Wind Dir Wind Speed Gust Speed Precip Events Conditions
12:52 AM 57.9 °F - 57.0 °F 97% 30.17 in 8.0 mi Calm Calm - N/A   Clear
1:52 AM 57.0 °F - 55.9 °F 96% 30.18 in 9.0 mi Calm Calm - N/A   Clear
2:52 AM 55.9 °F - 55.0 °F 97% 30.17 in 9.0 mi Calm Calm - N/A   Clear
3:20 AM 55.9 °F - 55.0 °F 97% 30.17 in 10.0 mi Calm Calm - N/A   Scattered Clouds
3:52 AM 55.9 °F - 55.0 °F 97% 30.17 in 5.0 mi Calm Calm - N/A   Overcast
4:37 AM 55.9 °F - 55.0 °F 97% 30.17 in 0.8 mi Calm Calm - N/A   Overcast
5:06 AM 55.9 °F - 55.9 °F 100% 30.18 in 0.2 mi Calm Calm - N/A Fog Fog
5:52 AM 55.0 °F - 55.0 °F 100% 30.18 in 0.2 mi Calm Calm - N/A Fog Fog
6:02 AM 55.0 °F - 55.0 °F 100% 30.19 in 0.5 mi Calm Calm - N/A Fog Fog
6:25 AM 55.9 °F - 55.0 °F 97% 30.19 in 0.2 mi Calm Calm - N/A Fog Fog
6:44 AM 55.9 °F - 55.9 °F 100% 30.19 in 0.5 mi Calm Calm - N/A Fog Fog
6:52 AM 55.9 °F - 55.9 °F 100% 30.19 in 0.2 mi Calm Calm - N/A Fog Fog
7:52 AM 57.9 °F - 57.9 °F 100% 30.20 in 0.5 mi Calm Calm - N/A Fog Fog
8:12 AM 59.0 °F - 59.0 °F 100% 30.20 in 1.5 mi Calm Calm - N/A   Overcast
8:19 AM 60.1 °F - 59.0 °F 96% 30.20 in 3.0 mi Calm Calm - N/A   Mostly Cloudy
8:35 AM 60.1 °F - 59.0 °F 96% 30.20 in 6.0 mi Calm Calm - N/A   Scattered Clouds
8:52 AM 62.1 °F - 60.1 °F 93% 30.20 in 10.0 mi Calm Calm - N/A   Partly Cloudy
9:52 AM 70.0 °F - 61.0 °F 73% 30.19 in 10.0 mi Calm Calm - N/A   Clear
10:52 AM 77.0 °F - 63.0 °F 62% 30.18 in 10.0 mi Calm Calm - N/A   Clear
11:52 AM 78.1 °F - 61.0 °F 56% 30.16 in 10.0 mi SE 3.5 mph - N/A   Clear
12:52 PM 81.0 °F 82.2 °F 63.0 °F 54% 30.15 in 10.0 mi Calm Calm - N/A   Clear
1:52 PM 84.0 °F 84.0 °F 60.1 °F 44% 30.14 in 10.0 mi Variable 3.5 mph - N/A   Scattered Clouds
2:52 PM 82.9 °F 82.8 °F 59.0 °F 44% 30.12 in 10.0 mi WSW 6.9 mph - N/A   Clear
3:52 PM 82.9 °F 82.8 °F 59.0 °F 44% 30.09 in 10.0 mi SSW 9.2 mph - N/A   Clear
4:52 PM 82.9 °F 83.3 °F 61.0 °F 47% 30.07 in 10.0 mi Variable 3.5 mph - N/A   Clear
5:52 PM 81.0 °F 81.9 °F 62.1 °F 52% 30.06 in 10.0 mi SW 3.5 mph - N/A   Clear
6:52 PM 75.9 °F - 66.9 °F 74% 30.05 in 10.0 mi Calm Calm - N/A   Clear
7:52 PM 69.1 °F - 64.0 °F 84% 30.06 in 10.0 mi Calm Calm - N/A   Clear
8:52 PM 64.9 °F - 62.1 °F 90% 30.07 in 10.0 mi Calm Calm - N/A   Clear
9:52 PM 63.0 °F - 62.1 °F 97% 30.06 in 10.0 mi Calm Calm - N/A   Clear
10:52 PM 62.1 °F - 61.0 °F 96% 30.06 in 10.0 mi Calm Calm - N/A   Clear
11:52 PM 61.0 °F - 59.0 °F 93% 30.06 in 8.0 mi Calm Calm - N/A   Clear